Hourly Data Report for February 27, 2005

TORONTO CITY
ONTARIO

43°40'00.000" N
79°24'00.000" W
112.50 m
6158355
71508
XTO

Download Data

Hourly Data (February 2005)
Hourly Data Report for February 27, 2005
TIME
LST
Temp Definition
°C
Dew Point Definition
°C
Rel Hum Definition
%
Precip. Amount Definition
mm

Wind Dir Definition
10's deg

Wind Spd Definition
km/h
Visibility Definition
km
Stn Press Definition
kPa
Hmdx Definition


Wind Chill Definition


Weather Definition


00:00 -9.2 -13.4 71   LegendMM LegendMM   101.39     LegendNANA
01:00 -9.6 -13.4 74   LegendMM LegendMM   101.39     LegendNANA
02:00 -10.6 -13.8 77   LegendMM LegendMM   101.45     LegendNANA
03:00 -10.2 -13.5 77   LegendMM LegendMM   101.40     LegendNANA
04:00 -9.6 -13.3 74   LegendMM LegendMM   101.41     LegendNANA
05:00 -9.9 -13.4 76   LegendMM LegendMM   101.48     LegendNANA
06:00 -10.0 -13.4 76   LegendMM LegendMM   101.46     LegendNANA
07:00 -10.2 -13.5 77   LegendMM LegendMM   101.50     LegendNANA
08:00 -9.5 -13.4 73   LegendMM LegendMM   101.54     LegendNANA
09:00 -7.6 -12.5 68   LegendMM LegendMM   101.54     LegendNANA
10:00 -5.5 -11.3 64   LegendMM LegendMM   101.48     LegendNANA
11:00 -3.8 -9.3 66   LegendMM LegendMM   101.39     LegendNANA
12:00 -3.9 -9.9 63   LegendMM LegendMM   101.32     LegendNANA
13:00 -2.9 -10.9 54   LegendMM LegendMM   101.15     LegendNANA
14:00 -3.9 -9.5 65   LegendMM LegendMM   101.06     LegendNANA
15:00 -3.9 -7.8 74   LegendMM LegendMM   101.01     LegendNANA
16:00 -3.8 -7.8 74   LegendMM LegendMM   100.91     LegendNANA
17:00 -3.8 -9.1 67   LegendMM LegendMM   100.87     LegendNANA
18:00 -3.6 -8.5 69   LegendMM LegendMM   100.78     LegendNANA
19:00 -3.7 -8.4 70   LegendMM LegendMM   100.67     LegendNANA
20:00 -3.2 -7.3 73   LegendMM LegendMM   100.64     LegendNANA
21:00 -2.8 -7.1 72   LegendMM LegendMM   100.49     LegendNANA
22:00 -2.3 -6.2 75   LegendMM LegendMM   100.39     LegendNANA
23:00 -2.2 -5.8 76   LegendMM LegendMM   100.32     LegendNANA

Notes on Data Quality.

Legend

  • E = Estimated
  • M = Missing
  • NA = Not Available*
  • [empty] = Indicates an unobserved value
Date modified: